Home   Weather   Cruz Bay   Past weeks

Flag for US Virgin Islands Past Weather in Cruz Bay, US Virgin Islands — Yesterday and Last 2 Weeks

80 °F


Feels Like: 87 °F
Forecast: 81 / 87 °F
Wind: 6 mph from East

Location: Cyril E. King International Airport

Current Time: Oct 28, 2016 at 4:40:54 AM

Latest Report: Oct 28, 2016 at 3:53 AM

Visibility: 10 mi

Pressure: 29.81 "Hg

Humidity: 96%

Dew Point: 79 °F

Location of Cruz BayLocation

Past Weather in Cruz Bay — Graph


Cruz Bay Temperature Yesterday

Maximum temperature yesterday: 87 °F (at 8:53 AM)
Minimum temperature yesterday: 81 °F (at 3:53 AM)
Average temperature yesterday: 84 °F

High & Low Weather Summary for the Past Weeks

High90 °F (Oct 23, 11:53 AM)100% (Oct 18, 11:53 PM)30.00 "Hg (Oct 18, 11:53 PM)
Low78 °F (Oct 19, 6:53 PM)59% (Oct 15, 3:53 PM)29.78 "Hg (Oct 17, 3:53 PM)
Average84 °F83%29.89 "Hg
* Reported Oct 13 2:53 AM — Oct 28 2:53 AM, Cruz Bay, Weather by CustomWeather, © 2016

Note: Actual official high and low records may vary slightly from our data, if they occured in-between our weather recording intervals... More about our weather records


Cruz Bay Weather History for the Previous 24 Hours

Scroll right to see more
Time TempWeatherWind HumidityBarometerVisibility
2:53 AM
Fri, Oct 28
79 °FClear.5 mph100%29.82 "Hg10 mi
1:53 AM80 °FPassing clouds.5 mph96%29.83 "Hg10 mi
12:53 AM80 °FLight rain. Partly cloudy.15 mph94%29.86 "Hg10 mi
11:53 PM
Thu, Oct 27
81 °FClear.3 mph91%29.86 "Hg10 mi
10:53 PM81 °FPassing clouds.7 mph88%29.87 "Hg10 mi
9:53 PM83 °FPassing clouds.8 mph88%29.87 "Hg10 mi
8:53 PM81 °FClear.5 mph94%29.86 "Hg10 mi
7:53 PM82 °FPartly cloudy.No wind94%29.85 "Hg10 mi
6:53 PM83 °FPassing clouds.6 mph88%29.83 "Hg10 mi
5:53 PM85 °FPassing clouds.9 mph83%29.81 "Hg10 mi
4:53 PM86 °FScattered clouds.10 mph80%29.80 "Hg10 mi
3:53 PM87 °FScattered clouds.8 mph77%29.80 "Hg10 mi
2:53 PM87 °FScattered clouds.9 mph77%29.80 "Hg10 mi
2:25 PM87 °FScattered clouds.7 mph77%29.80 "Hg10 mi
1:53 PM86 °FScattered clouds.3 mph83%29.81 "Hg10 mi
12:53 PM86 °FScattered clouds.7 mph85%29.83 "Hg10 mi
12:31 PM85 °FScattered clouds.5 mph88%29.84 "Hg10 mi
12:00 PM84 °FMostly cloudy.5 mph88%29.85 "Hg10 mi
11:47 AM82 °FLight rain. Fog.6 mph89%29.86 "Hg3 mi
11:12 AM83 °FLight rain. Fog.No wind88%29.87 "Hg4 mi
10:59 AM83 °FHeavy rain. Fog.5 mph88%29.87 "Hg2 mi
9:53 AM87 °FPassing clouds.6 mph72%29.88 "Hg10 mi
8:53 AM87 °FPassing clouds.7 mph72%29.87 "Hg10 mi
7:53 AM85 °FSunny.8 mph77%29.85 "Hg10 mi
6:53 AM82 °FSunny.3 mph82%29.83 "Hg10 mi
5:53 AM82 °FClear.5 mph82%29.81 "Hg10 mi
4:53 AM81 °FClear.3 mph85%29.79 "Hg10 mi
Weather by CustomWeather, © 2016

See weather overviewHow to use our weather pages